User: anonymous
Location: Unspecified
(0.0000°N, 0.0000°E)
Time: 08:11:32
(UTC+00:00)
Language:

RISAT 1 - Orbit

View from above orbital plane
View from above orbital plane
View from above satellite
View from above satellite

Ground track
Ground track

The orbit data is extracted from the following two-line orbital elements,

1 38248U 12017A   14273.85215341  .00002278  00000-0  14834-3 0  7497
2 38248 097.5623 279.5154 0001025 189.6910 291.0719 15.08944409133891
Epoch (UTC): 30 September 2014 20:27:06
Eccentricity: 0.0001025
inclination: 97.5623°
perigee height: 539 km
apogee height: 540 km
right ascension of ascending node: 279.5154°
argument of perigee: 189.6910°
revolutions per day: 15.08944409
mean anomaly at epoch: 291.0719°
orbit number at epoch: 13389

The dashed part of the orbit path shows where the satellite is in the earth's shadow,  

DLR